Location: Unspecified
(0.0000°N, 0.0000°E)
Time: 17:25:37
(UTC+00:00)

Hubble Space Telescope - Pass Details

Date: 11 January 2026
Orbit: 479 x 481 km, 28.5° (Epoch: 19 January)

Event Time Altitude Azimuth Distance (km) Brightness Sun altitude
Rises 19:46:58 0° 219° (SW) 2,524 5.2 -22.9°
Reaches altitude 10° 19:49:32 10° 203° (SSW) 1,645 3.8 -23.5°
Enters shadow 19:51:43 20° 170° (S) 1,144 2.5 -24.0°
